Temp
-15 -15 -15 -15 -16 -16 -16 -16 -16 -16 -16 -16 -16 -17 -16 -16 -16 -16 -16 -16 -16 -16 -16 -16 -16 -16 -16 -17 -17 -17 -17 -17 -17 -17 -17 -17 -18 -17
-15 -15 -15 -16 -16 -16 -16 -16 -16 -15 -16 -16 -17 -16 -16 -16 -17 -17 -17 -17 -17 -17 -17 -16 -17 -17 -18 -18 -18 -18 -18 -18 -18 -18 -18 -18 -18 -18
-15 -16 -16 -16 -16 -16 -16 -16 -16 -16 -17 -17 -16 -16 -17 -17 -18 -17 -17 -17 -17 -17 -18 -18 -18 -18 -18 -19 -19 -19 -19 -19 -19 -19 -19 -19 -18 -18
-16 -16 -17 -16 -16 -16 -16 -16 -17 -16 -16 -17 -17 -17 -17 -17 -17 -17 -17 -18 -18 -18 -19 -19 -19 -19 -19 -19 -19 -19 -19 -19 -19 -19 -19 -19 -19 -19
-17 -17 -17 -17 -17 -16 -16 -16 -16 -16 -17 -17 -17 -17 -17 -17 -18 -18 -18 -19 -19 -19 -20 -20 -20 -20 -20 -20 -20 -19 -19 -19 -19 -19 -19 -19 -20 -20
-17 -16 -16 -16 -17 -17 -17 -17 -17 -17 -17 -17 -17 -17 -18 -18 -18 -19 -19 -20 -20 -20 -20 -20 -20 -20 -20 -20 -20 -20 -20 -20 -21 -22 -23 -24 -25 -25
-16 -17 -16 -17 -17 -17 -17 -17 -17 -17 -17 -18 -18 -18 -18 -18 -19 -20 -20 -20 -20 -20 -20 -21 -21 -20 -21 -21 -21 -22 -24 -24 -24 -25 -25 -25 -26 -26
-17 -17 -17 -17 -17 -17 -17 -17 -17 -18 -18 -18 -18 -18 -18 -19 -19 -19 -19 -20 -20 -21 -21 -21 -21 -22 -24 -25 -25 -25 -25 -25 -25 -26 -27 -27 -27 -27
-17 -17 -17 -17 -17 -17 -18 -18 -18 -18 -18 -18 -18 -19 -19 -19 -19 -20 -20 -21 -21 -22 -21 -22 -24 -25 -25 -25 -25 -25 -25 -25 -27 -29 -31 -31 -31 -30
-17 -17 -17 -18 -19 -18 -19 -19 -19 -19 -19 -19 -19 -18 -19 -19 -20 -21 -21 -22 -24 -25 -25 -24 -25 -25 -24 -25 -25 -25 -25 -26 -28 -30 -31 -31 -32 -31
-17 -18 -18 -19 -19 -19 -19 -19 -19 -19 -18 -18 -19 -19 -20 -21 -22 -23 -24 -25 -25 -25 -25 -25 -25 -25 -25 -25 -25 -25 -25 -26 -28 -29 -29 -30 -30 -31
-18 -19 -19 -19 -19 -19 -19 -19 -19 -19 -19 -20 -20 -21 -22 -24 -26 -25 -25 -25 -25 -25 -25 -25 -25 -25 -25 -27 -27 -26 -26 -26 -27 -29 -29 -29 -29 -30
-19 -19 -19 -19 -19 -19 -19 -19 -19 -19 -20 -21 -23 -25 -25 -25 -25 -26 -25 -25 -25 -25 -25 -24 -25 -25 -25 -25 -27 -27 -27 -27 -27 -27 -28 -28 -29 -29
-19 -19 -20 -20 -19 -19 -19 -19 -20 -22 -23 -25 -25 -25 -25 -25 -26 -26 -26 -26 -25 -25 -25 -25 -25 -25 -25 -25 -26 -26 -27 -27 -26 -28 -28 -28 -28 -28
-20 -20 -20 -19 -19 -20 -20 -21 -23 -24 -24 -25 -25 -25 -25 -26 -26 -27 -26 -26 -26 -25 -24 -24 -25 -25 -25 -25 -25 -26 -26 -28 -27 -28 -28 -27 -27 -28
-20 -20 -19 -20 -20 -21 -23 -23 -24 -24 -25 -25 -25 -25 -26 -26 -26 -27 -27 -27 -27 -26 -25 -25 -25 -25 -25 -25 -26 -25 -26 -27 -27 -27 -27 -27 -27 -27
-20 -20 -20 -20 -21 -22 -24 -24 -24 -25 -25 -25 -25 -26 -26 -26 -26 -27 -27 -27 -26 -26 -26 -26 -25 -25 -25 -26 -26 -26 -26 -27 -27 -27 -27 -27 -27 -26
-20 -20 -20 -21 -22 -24 -24 -24 -25 -25 -25 -26 -26 -26 -26 -26 -26 -27 -27 -27 -27 -26 -25 -25 -25 -25 -26 -26 -26 -26 -26 -27 -27 -26 -26 -27 -26 -26
-21 -21 -21 -22 -23 -24 -24 -25 -25 -25 -26 -26 -26 -26 -26 -26 -26 -27 -27 -27 -27 -26 -26 -25 -25 -25 -25 -26 -26 -25 -25 -26 -26 -26 -26 -25 -26 -26
-21 -21 -21 -22 -24 -25 -25 -25 -25 -26 -26 -26 -26 -26 -26 -27 -27 -26 -27 -27 -27 -27 -27 -26 -25 -25 -26 -26 -26 -26 -25 -25 -25 -26 -26 -26 -26 -26
-21 -21 -22 -24 -25 -26 -26 -26 -26 -26 -26 -27 -27 -27 -27 -27 -27 -26 -26 -27 -27 -27 -27 -26 -26 -26 -26 -26 -25 -25 -25 -25 -25 -25 -25 -26 -26 -27
-21 -22 -23 -26 -26 -26 -26 -26 -26 -26 -27 -27 -27 -27 -27 -27 -27 -27 -27 -26 -27 -27 -27 -27 -26 -26 -26 -25 -25 -25 -25 -26 -26 -26 -26 -27 -26 -26
-22 -22 -25 -27 -27 -27 -26 -26 -27 -27 -27 -27 -27 -27 -27 -27 -27 -27 -27 -26 -27 -27 -27 -26 -26 -26 -26 -25 -25 -25 -25 -25 -26 -26 -26 -26 -27 -26
Height
5711 5709 5709 5709 5709 5707 5705 5704 5702 5699 5695 5691 5686 5683 5681 5678 5674 5671 5669 5667 5663 5660 5656 5652 5648 5644 5639 5636 5632 5629 5625 5622 5620 5617 5614 5613 5611 5610
5699 5697 5697 5697 5696 5694 5692 5690 5688 5684 5681 5674 5672 5669 5665 5661 5658 5655 5652 5649 5646 5641 5636 5632 5628 5623 5619 5615 5611 5607 5604 5600 5597 5594 5591 5588 5586 5584
5687 5686 5684 5683 5682 5681 5678 5676 5672 5670 5666 5662 5659 5655 5650 5646 5642 5638 5634 5630 5625 5619 5614 5610 5605 5600 5595 5591 5587 5583 5580 5577 5573 5569 5565 5561 5559 5556
5675 5676 5673 5671 5669 5667 5665 5657 5658 5655 5653 5647 5643 5639 5635 5629 5625 5621 5615 5610 5604 5598 5592 5587 5582 5576 5571 5566 5563 5559 5555 5550 5545 5541 5535 5530 5527 5523
5662 5661 5659 5656 5655 5653 5650 5646 5643 5640 5637 5633 5629 5624 5619 5612 5608 5602 5596 5589 5583 5575 5570 5564 5559 5551 5545 5540 5536 5530 5524 5518 5512 5506 5500 5494 5489 5484
5651 5649 5647 5644 5643 5637 5634 5634 5631 5626 5621 5617 5614 5609 5603 5595 5589 5584 5578 5569 5564 5553 5548 5541 5533 5525 5516 5510 5504 5496 5488 5481 5473 5466 5461 5458 5455 5454
5640 5638 5634 5634 5630 5626 5624 5621 5617 5612 5607 5602 5597 5590 5583 5576 5570 5563 5557 5550 5543 5532 5526 5513 5506 5498 5486 5478 5468 5460 5454 5447 5441 5435 5430 5427 5426 5426
5628 5627 5625 5623 5619 5615 5613 5609 5603 5596 5590 5585 5579 5572 5565 5558 5551 5544 5535 5527 5522 5507 5502 5493 5479 5472 5462 5453 5444 5436 5428 5421 5411 5402 5395 5392 5391 5392
5618 5616 5614 5611 5607 5604 5601 5596 5590 5583 5576 5569 5562 5554 5547 5537 5530 5519 5508 5501 5493 5483 5478 5476 5460 5455 5445 5435 5426 5419 5411 5401 5386 5375 5368 5364 5364 5365
5609 5606 5603 5599 5596 5593 5588 5581 5574 5565 5557 5549 5542 5533 5522 5511 5502 5493 5484 5477 5470 5462 5458 5462 5446 5441 5433 5422 5414 5404 5394 5384 5374 5364 5356 5352 5350 5350
5599 5596 5593 5588 5585 5581 5576 5567 5558 5548 5538 5528 5517 5507 5496 5487 5479 5473 5467 5463 5461 5451 5446 5443 5434 5431 5419 5409 5401 5393 5383 5372 5364 5357 5351 5346 5344 5343
5590 5586 5582 5579 5573 5568 5562 5553 5541 5528 5515 5503 5493 5484 5476 5470 5468 5465 5460 5453 5447 5441 5436 5432 5424 5420 5415 5399 5391 5384 5374 5365 5357 5350 5346 5342 5339 5337
5580 5578 5573 5568 5562 5554 5545 5533 5519 5506 5493 5483 5476 5472 5469 5464 5459 5453 5446 5440 5434 5429 5424 5421 5415 5410 5403 5398 5385 5377 5368 5359 5352 5344 5338 5333 5330 5328
5573 5569 5563 5556 5548 5537 5527 5515 5503 5492 5482 5477 5473 5467 5462 5457 5450 5442 5434 5429 5424 5420 5414 5411 5406 5400 5395 5388 5380 5370 5361 5354 5348 5341 5334 5328 5323 5320
5564 5557 5550 5543 5534 5524 5512 5500 5493 5486 5480 5474 5469 5464 5458 5451 5444 5435 5427 5421 5415 5409 5405 5402 5397 5390 5384 5378 5372 5363 5357 5346 5340 5335 5329 5325 5320 5316
5552 5545 5538 5530 5520 5510 5500 5493 5487 5481 5476 5470 5465 5459 5453 5446 5438 5430 5422 5416 5409 5402 5396 5392 5386 5381 5374 5367 5361 5354 5346 5340 5334 5329 5325 5319 5315 5313
5541 5534 5526 5517 5507 5499 5492 5487 5481 5475 5470 5465 5460 5453 5447 5440 5432 5425 5417 5409 5402 5397 5391 5384 5378 5371 5363 5354 5351 5343 5339 5331 5327 5323 5320 5315 5310 5308
5531 5523 5515 5505 5496 5489 5485 5479 5474 5469 5464 5458 5453 5447 5441 5434 5427 5419 5411 5404 5397 5390 5384 5379 5373 5365 5357 5345 5336 5336 5329 5326 5320 5315 5312 5309 5305 5303
5520 5511 5502 5493 5485 5480 5476 5472 5467 5461 5456 5451 5445 5441 5435 5428 5422 5414 5407 5399 5391 5384 5376 5371 5365 5360 5356 5348 5333 5327 5328 5322 5317 5312 5309 5304 5301 5297
5507 5498 5490 5481 5475 5471 5467 5463 5458 5453 5448 5443 5438 5433 5428 5422 5416 5409 5402 5394 5386 5379 5371 5363 5357 5352 5346 5340 5335 5326 5321 5317 5312 5308 5303 5298 5294 5290
5495 5487 5477 5470 5466 5462 5458 5454 5449 5445 5440 5435 5429 5425 5420 5415 5409 5403 5396 5388 5380 5372 5365 5357 5351 5343 5338 5332 5327 5320 5313 5308 5305 5301 5297 5293 5288 5283
5483 5474 5464 5458 5455 5452 5449 5445 5441 5436 5432 5427 5422 5417 5412 5407 5402 5396 5390 5383 5376 5367 5360 5352 5345 5340 5333 5327 5322 5317 5311 5305 5297 5290 5284 5281 5280 5277
5471 5460 5451 5447 5446 5444 5441 5437 5433 5428 5424 5419 5414 5409 5404 5399 5394 5388 5383 5377 5370 5364 5356 5348 5339 5333 5327 5321 5316 5311 5306 5300 5295 5289 5278 5273 5269 5266
Wind_Speed
59 60 56 55 54 54 52 53 55 55 56 57 57 52 62 64 57 52 56 60 63 62 66 67 69 67 67 68 69 71 72 73 73 73 73 73 73 74
61 63 63 58 53 52 52 53 53 53 60 58 56 59 57 54 56 60 62 62 64 68 70 71 70 70 70 70 70 70 71 71 72 72 74 75 77 79
61 59 60 58 57 55 51 54 54 55 57 58 59 61 63 61 61 65 65 67 73 73 71 71 73 72 71 72 71 71 73 75 77 79 81 84 86 87
58 55 59 56 55 54 54 54 50 56 64 60 59 59 55 57 59 64 69 73 72 72 72 71 71 72 73 75 77 78 80 83 86 89 91 93 94 96
49 53 52 54 51 52 51 53 58 61 58 61 62 60 62 64 66 68 70 71 71 70 71 73 75 78 80 82 84 86 89 93 96 98 100 102 102 101
42 44 47 49 49 48 45 53 58 62 58 57 57 59 64 67 69 69 68 69 70 74 76 78 81 84 88 90 93 96 96 94 90 89 86 83 80 76
38 39 35 48 59 51 52 54 54 55 57 58 63 65 66 68 69 70 72 74 77 80 82 86 87 91 93 89 85 82 80 82 84 86 87 85 83 80
34 43 48 49 52 54 52 51 55 58 62 65 65 66 69 71 74 77 79 82 82 85 86 86 85 74 67 68 74 75 73 74 78 80 80 79 76 74
38 42 45 50 38 42 49 53 56 59 61 62 65 70 73 78 81 85 88 89 87 84 81 64 57 57 60 58 59 61 60 56 52 52 54 54 54 55
34 33 36 39 41 44 46 50 56 60 65 70 73 77 80 85 87 83 78 70 59 47 47 43 48 44 47 50 52 52 50 46 41 38 35 32 30 32
36 34 36 37 40 44 50 56 63 68 72 75 76 78 78 75 67 54 42 37 37 46 47 37 39 39 42 47 47 49 46 43 40 34 30 25 22 22
30 32 35 39 43 49 55 61 65 70 70 67 66 65 52 33 26 30 36 41 43 38 36 36 36 34 35 40 42 44 44 43 42 38 32 25 20 15
31 35 39 43 49 54 61 64 74 70 59 54 35 19 23 28 34 40 43 39 34 36 36 30 32 33 31 30 35 37 41 42 38 35 34 31 29 24
34 37 41 47 53 59 63 71 62 48 32 18 22 26 29 33 39 41 37 33 35 35 31 28 30 32 31 35 35 37 37 37 34 30 30 28 23 20
35 38 45 51 56 59 62 54 43 30 22 21 24 28 32 35 39 39 34 31 36 35 30 30 31 32 34 37 37 39 33 30 33 29 33 27 18 15
37 43 48 51 56 55 46 38 32 26 23 24 28 30 33 36 37 38 31 29 32 34 34 35 35 33 34 37 38 36 32 23 25 30 27 27 23 19
41 47 51 56 55 45 36 32 31 30 29 30 32 32 32 35 37 37 34 30 31 30 31 33 34 33 35 39 37 35 31 28 23 22 22 23 25 16
43 48 52 57 50 38 33 30 31 32 33 35 35 33 32 33 36 37 36 33 30 30 31 30 30 32 35 42 45 35 35 28 26 25 26 25 27 24
46 52 56 57 43 34 30 30 31 33 33 34 32 30 30 32 34 36 36 35 34 31 31 31 31 31 28 29 37 34 26 23 20 21 19 21 21 20
49 54 59 54 36 30 29 30 31 31 31 31 29 29 29 31 33 34 36 37 36 33 32 33 33 31 30 26 23 28 25 21 21 21 23 24 24 25
52 58 61 42 31 29 28 30 30 30 30 30 29 29 29 29 32 34 35 37 38 37 34 33 33 33 32 27 25 25 28 28 29 29 28 26 24 25
57 62 54 33 29 27 27 31 31 30 30 30 30 30 31 31 32 34 36 36 38 39 38 35 32 32 31 25 22 22 24 29 35 38 37 32 24 22
60 62 41 28 28 27 28 31 30 29 29 30 31 31 32 33 33 35 35 36 37 38 35 30 31 33 30 26 25 26 27 30 32 32 35 33 29 23
Wind_Direction
269 274 269 274 276 277 280 282 283 285 283 281 282 281 281 279 278 278 284 286 288 288 290 290 292 292 291 289 287 286 284 283 281 280 278 277 275 274
268 268 275 279 280 281 282 282 283 281 283 283 286 284 287 284 282 286 287 287 287 288 289 290 290 289 287 286 285 284 283 281 279 277 276 275 274 272
273 274 277 277 278 279 282 282 283 280 278 279 284 282 278 292 287 289 290 286 290 290 289 289 288 288 287 286 285 284 283 281 280 278 276 275 274 273
269 272 276 278 276 279 280 275 279 279 280 276 281 285 282 288 293 291 289 288 290 290 289 289 289 288 286 285 284 284 283 281 280 278 277 276 275 274
266 270 273 273 275 278 274 279 279 278 279 284 281 282 287 290 290 288 291 292 291 290 291 290 289 288 287 288 287 286 285 284 282 281 279 276 274 272
272 273 273 275 281 277 275 280 281 280 286 284 286 288 287 289 294 293 293 292 292 292 291 291 290 290 290 290 290 289 289 286 280 277 276 276 275 274
272 271 274 276 275 286 286 280 283 285 285 287 288 295 297 295 295 294 294 293 292 291 291 291 292 292 294 294 292 290 289 289 287 285 281 276 272 270
270 275 273 278 279 270 284 288 289 292 293 294 296 297 296 296 296 295 294 293 290 290 291 294 295 294 293 294 295 296 296 295 293 288 283 278 274 271
278 277 279 277 282 286 291 293 295 295 296 297 297 297 296 295 293 291 291 292 293 293 293 292 293 295 298 299 302 305 305 311 311 306 297 288 280 273
279 280 283 294 299 300 303 304 302 302 303 302 300 297 294 292 293 294 294 295 295 291 292 298 297 301 302 304 311 317 323 325 332 332 324 311 295 282
278 298 303 307 306 304 307 308 308 307 306 303 298 296 295 296 297 298 297 294 295 297 300 302 302 308 309 311 314 322 329 335 333 331 329 321 306 285
304 305 306 306 308 309 309 311 314 316 312 305 301 298 300 306 309 306 304 302 303 299 300 303 307 308 311 312 315 321 326 334 333 327 319 316 307 291
306 305 305 308 310 312 315 321 324 320 313 310 315 328 327 325 320 315 311 308 306 309 306 307 308 311 312 314 313 318 323 323 329 331 333 331 321 312
305 308 308 310 316 316 323 329 325 322 326 336 336 334 330 330 328 323 317 315 311 312 308 312 312 311 311 312 314 314 318 313 325 323 329 329 321 312
308 310 312 318 320 323 329 330 329 328 326 328 332 335 334 330 332 328 321 319 318 316 312 316 317 314 312 312 317 316 313 305 310 316 315 320 323 331
314 313 317 320 324 327 324 324 325 318 320 326 331 330 331 333 332 333 327 324 324 322 319 322 322 318 314 315 319 320 322 310 291 295 303 308 309 312
312 315 321 326 326 321 316 318 318 311 314 317 320 324 326 334 334 336 335 330 326 325 321 323 326 323 320 318 323 326 329 327 316 303 306 303 313 325
315 319 323 327 324 313 310 314 312 309 309 310 312 317 321 325 334 336 337 337 332 328 324 326 329 328 330 325 322 327 328 332 324 320 317 316 318 326
318 321 324 326 319 308 304 310 309 307 308 309 310 313 318 321 327 337 338 337 340 335 329 331 329 328 327 320 315 321 329 327 326 325 318 313 311 314
321 323 324 322 307 295 300 308 308 307 308 311 311 312 315 318 324 329 335 340 342 340 333 330 329 329 330 326 318 313 323 328 327 322 320 317 312 307
321 323 322 315 295 290 302 309 309 308 310 312 314 314 316 317 320 326 332 337 342 343 338 329 328 330 335 331 328 326 326 323 323 322 317 311 304 297
322 322 321 301 288 289 303 309 310 308 308 307 310 312 312 314 318 323 328 334 340 344 339 329 328 333 333 333 331 329 321 321 323 322 319 314 304 288
323 321 313 290 284 289 302 308 308 310 308 307 309 309 310 312 315 319 323 329 337 339 335 333 330 336 334 333 330 326 325 322 322 320 312 312 312 322